Weather History for Palma de Mallorca, Spain

Change the Weather History Date:

Sunday, May 26, 2013

  Actual Average Record
Temperature  
Mean Temperature 58 °F -  
Max Temperature 70 °F 80 °F 89 °F (1999)
Min Temperature 47 °F 59 °F 47 °F (2013)
Degree Days  
Heating Degree Days 6    
Growing Degree Days 8 (Base 50)    
Moisture  
Dew Point 49 °F    
Average Humidity 67    
Maximum Humidity 94    
Minimum Humidity 39    
Precipitation  
Precipitation 0.00 in 0.02 in - ()
Sea Level Pressure  
Sea Level Pressure 30.08 in    
Wind  
Wind Speed 6 mph ()    
Max Wind Speed 16 mph    
Max Gust Speed 22 mph    
Visibility 7.1 miles    
Events      
Averages and records for this station are not official NWS values.
T = Trace of Precipitation, MM = Missing Value Source: Averaged Metar Reports

Daily Weather History Graph

Daily Weather History Graph

Search for Another Location

Airport:

Trip Planner

Search our weather history database for the weather conditions in past years. The results will help you decide how hot, cold, wet, or windy it might be!

Date:

Astronomy

May. 26, 2013 Rise Set
Actual Time 6:26 AM CEST 9:06 PM CEST
Civil Twilight 5:55 AM CEST 9:37 PM CEST
Nautical Twilight 5:16 AM CEST 10:16 PM CEST
Astronomical Twilight 4:32 AM CEST 11:01 PM CEST
Moon 10:39 PM CEST (5/26) 7:39 AM CEST (5/26)
Length of Visible Light 15h 42m
Length of Day
14h 39m
Full, 98% of the Moon is Illuminated
May 26
Full
May 31
Last Quarter
Jun 8
New
Jun 16
First Quarter
Jun 23
Full

Hourly Weather History & Observations

Time (CEST) Temp. Dew Point Humidity Pressure Visibility Wind Dir Wind Speed Gust Speed Precip Events Conditions
12:00 AM 55.4 °F 46.4 °F 72% 30.09 in - ENE 4.6 mph - N/A   Clear
12:30 AM 53.6 °F 46.4 °F 77% 30.09 in - Variable 2.3 mph - N/A   Clear
1:00 AM 51.8 °F 46.4 °F 82% 30.12 in - ENE 5.8 mph - N/A   Clear
1:30 AM 51.8 °F 46.4 °F 82% 30.12 in - NE 5.8 mph - N/A   Clear
2:00 AM 51 °F 46 °F 79% 30.12 in 12 mi ESE 2.3 mph - -  
2:00 AM 51.8 °F 46.4 °F 82% 30.12 in - NE 8.1 mph - N/A   Clear
2:30 AM 51.8 °F 48.2 °F 88% 30.12 in - ENE 4.6 mph - N/A   Clear
3:00 AM 50.0 °F 46.4 °F 87% 30.09 in - ENE 5.8 mph - N/A   Clear
3:30 AM 50.0 °F 46.4 °F 87% 30.12 in - ENE 5.8 mph - N/A   Clear
4:00 AM 50.0 °F 46.4 °F 87% 30.09 in - ENE 3.5 mph - N/A   Clear
4:30 AM 50.0 °F 46.4 °F 87% 30.09 in - ENE 5.8 mph - N/A   Clear
5:00 AM 50.0 °F 46.4 °F 87% 30.09 in - Variable 2.3 mph - N/A   Clear
5:30 AM 48.2 °F 44.6 °F 87% 30.09 in - NE 3.5 mph - N/A   Clear
6:00 AM 48.2 °F 44.6 °F 87% 30.09 in 6.2 mi ENE 4.6 mph - N/A   Partly Cloudy
6:30 AM 48.2 °F 46.4 °F 93% 30.09 in 6.2 mi Variable 1.2 mph - N/A   Partly Cloudy
7:00 AM 50.0 °F 48.2 °F 94% 30.09 in 6.2 mi Variable 2.3 mph - N/A   Scattered Clouds
7:30 AM 51.8 °F 48.2 °F 88% 30.12 in 6.2 mi Variable 1.2 mph - N/A   Scattered Clouds
8:00 AM 54 °F 49 °F 78% 30.12 in 16 mi ENE 1.2 mph - -   Scattered Clouds
8:00 AM 55.4 °F 50.0 °F 82% 30.12 in 6.2 mi NE 5.8 mph - N/A   Partly Cloudy
8:30 AM 59.0 °F 51.8 °F 77% 30.12 in 6.2 mi Variable 2.3 mph - N/A   Partly Cloudy
9:00 AM 62.6 °F 51.8 °F 68% 30.12 in 6.2 mi East 3.5 mph - N/A   Partly Cloudy
9:30 AM 62.6 °F 48.2 °F 59% 30.12 in 6.2 mi SE 9.2 mph - N/A   Partly Cloudy
10:00 AM 66.2 °F 48.2 °F 52% 30.12 in 6.2 mi SSE 10.4 mph 21.9 mph N/A   Scattered Clouds
10:30 AM 64.4 °F 50.0 °F 59% 30.12 in 6.2 mi South 11.5 mph - N/A   Scattered Clouds
11:00 AM 66.2 °F 48.2 °F 52% 30.12 in 6.2 mi SSE 8.1 mph - N/A   Scattered Clouds
11:30 AM 66.2 °F 48.2 °F 52% 30.12 in 6.2 mi SSW 8.1 mph - N/A   Scattered Clouds
12:00 PM 68.0 °F 48.2 °F 49% 30.12 in 6.2 mi Variable 6.9 mph 18.4 mph N/A   Scattered Clouds
12:30 PM 69.8 °F 50.0 °F 49% 30.12 in 6.2 mi South 8.1 mph - N/A   Scattered Clouds
1:00 PM 66.2 °F 50.0 °F 56% 30.12 in 6.2 mi South 10.4 mph - N/A   Scattered Clouds
1:30 PM 66.2 °F 50.0 °F 56% 30.12 in 6.2 mi South 10.4 mph - N/A   Scattered Clouds
2:00 PM 68 °F 49 °F 39% 30.11 in 17 mi SW 16.1 mph - -   Mostly Cloudy
2:00 PM 68.0 °F 50.0 °F 52% 30.09 in 6.2 mi South 8.1 mph - N/A   Mostly Cloudy
2:30 PM 68.0 °F 51.8 °F 56% 30.09 in 6.2 mi South 9.2 mph - N/A   Mostly Cloudy
3:00 PM 68.0 °F 50.0 °F 52% 30.09 in 6.2 mi SW 15.0 mph - N/A   Scattered Clouds
3:30 PM 68.0 °F 50.0 °F 52% 30.09 in 6.2 mi SSW 9.2 mph - N/A   Scattered Clouds
4:00 PM 68.0 °F 50.0 °F 52% 30.06 in 6.2 mi South 9.2 mph - N/A   Scattered Clouds
4:30 PM 68.0 °F 50.0 °F 52% 30.06 in 6.2 mi SSE 10.4 mph - N/A   Scattered Clouds
5:00 PM 68.0 °F 51.8 °F 56% 30.04 in 6.2 mi South 8.1 mph - N/A   Partly Cloudy
5:30 PM 69.8 °F 48.2 °F 46% 30.04 in 6.2 mi SSE 9.2 mph - N/A   Partly Cloudy
6:00 PM 69.8 °F 50.0 °F 49% 30.04 in 6.2 mi South 9.2 mph - N/A   Partly Cloudy
6:30 PM 68.0 °F 50.0 °F 52% 30.04 in 6.2 mi SSE 11.5 mph - N/A   Partly Cloudy
7:00 PM 68.0 °F 50.0 °F 52% 30.01 in 6.2 mi South 10.4 mph - N/A   Partly Cloudy
7:30 PM 66.2 °F 50.0 °F 56% 30.01 in 6.2 mi SSE 10.4 mph - N/A   Partly Cloudy
8:00 PM 66 °F 48 °F 41% 30.02 in 16 mi SSE 9.2 mph - -   Scattered Clouds
8:00 PM 66.2 °F 48.2 °F 52% 30.01 in 6.2 mi SSE 11.5 mph - N/A   Partly Cloudy
8:30 PM 64.4 °F 50.0 °F 59% 30.01 in 6.2 mi SE 6.9 mph - N/A   Partly Cloudy
9:00 PM 64.4 °F 48.2 °F 56% 30.01 in 6.2 mi ESE 5.8 mph - N/A   Partly Cloudy
9:30 PM 62.6 °F 50.0 °F 63% 30.01 in 6.2 mi ESE 3.5 mph - N/A   Partly Cloudy
10:00 PM 62.6 °F 50.0 °F 63% 30.01 in 6.2 mi East 2.3 mph - N/A   Partly Cloudy
10:30 PM 59.0 °F 50.0 °F 72% 30.01 in 6.2 mi ENE 3.5 mph - N/A   Partly Cloudy
11:00 PM 57.2 °F 50.0 °F 77% 30.01 in 6.2 mi NE 3.5 mph - N/A   Partly Cloudy
11:30 PM 57.2 °F 50.0 °F 77% 30.01 in 6.2 mi NE 5.8 mph - N/A   Partly Cloudy